N325CJ LKKV-LSZB

Flight info

Callsign N325CJ
Flight time 1h 0m
Altitude 34000
Route N0450F340 OKG N869 OLBEN Z50 ROTOS
Aircraft C25C/M-VGDW/C

Departure

Time 2026-04-28 20:05
Airport Karlovy Vary Airport (LKKV)

Arrival

Time 2026-04-28 21:05
Airport Bern Airport (LSZB)
Time Latitude Longitude Altitude Speed Heading
2026-04-28 19:50 50.20202 12.91190 1985 ft 0 kts 203°
2026-04-28 20:02 50.20200 12.91187 1985 ft 2 kts 232°
2026-04-28 20:02 50.20209 12.91181 1985 ft 5 kts 354°
2026-04-28 20:02 50.20297 12.91210 1985 ft 19 kts 24°
2026-04-28 20:02 50.20415 12.91119 1987 ft 29 kts 294°
2026-04-28 20:03 50.20512 12.90765 1984 ft 39 kts 293°
2026-04-28 20:03 50.20615 12.90388 1984 ft 36 kts 292°
2026-04-28 20:03 50.20668 12.90164 1986 ft 1 kts
2026-04-28 20:03 50.20663 12.90214 1985 ft 13 kts 112°
2026-04-28 20:04 50.20657 12.90234 1985 ft 0 kts 112°
2026-04-28 20:04 50.20593 12.90473 1984 ft 73 kts 112°
2026-04-28 20:04 50.20271 12.91649 2357 ft 141 kts 108°
2026-04-28 20:05 50.19808 12.93173 3524 ft 168 kts 116°
2026-04-28 20:05 50.19186 12.94870 4709 ft 192 kts 116°
2026-04-28 20:05 50.18182 12.96420 5792 ft 223 kts 158°
2026-04-28 20:05 50.16655 12.96404 7064 ft 233 kts 199°
2026-04-28 20:06 50.15230 12.95136 8178 ft 238 kts 219°
2026-04-28 20:06 50.14074 12.93280 9373 ft 240 kts 233°
2026-04-28 20:06 50.13083 12.91154 10517 ft 244 kts 237°
2026-04-28 20:06 50.12107 12.88962 11630 ft 247 kts 238°
2026-04-28 20:07 50.11134 12.86774 12740 ft 250 kts 238°
2026-04-28 20:07 50.10472 12.85285 13498 ft 251 kts 238°
2026-04-28 20:07 50.09324 12.82140 14847 ft 252 kts 257°
2026-04-28 20:07 50.08980 12.79448 15833 ft 254 kts 263°
2026-04-28 20:08 50.08700 12.76716 16826 ft 256 kts 264°
2026-04-28 20:08 50.08449 12.73946 17828 ft 259 kts 267°
2026-04-28 20:08 50.08280 12.71171 18793 ft 262 kts 268°
2026-04-28 20:08 50.07991 12.68352 19710 ft 268 kts 255°
2026-04-28 20:09 50.07260 12.65646 20691 ft 272 kts 249°
2026-04-28 20:09 50.06444 12.63007 21658 ft 275 kts 248°
2026-04-28 20:09 50.05566 12.60323 22658 ft 279 kts 246°
2026-04-28 20:09 50.04634 12.57644 23645 ft 282 kts 247°
2026-04-28 20:10 50.03743 12.54947 24459 ft 284 kts 248°
2026-04-28 20:10 50.02861 12.52185 25265 ft 284 kts 249°
2026-04-28 20:10 50.01993 12.49408 26056 ft 285 kts 249°
2026-04-28 20:10 50.01139 12.46655 26830 ft 286 kts 250°
2026-04-28 20:11 50.00268 12.43850 27595 ft 287 kts 249°
2026-04-28 20:11 49.99394 12.41048 28048 ft 299 kts 249°
2026-04-28 20:11 49.98473 12.38078 28659 ft 303 kts 249°
2026-04-28 20:11 49.97555 12.35140 29585 ft 298 kts 250°
2026-04-28 20:12 49.96655 12.32293 30442 ft 294 kts 249°
2026-04-28 20:12 49.95746 12.29451 31122 ft 291 kts 250°
2026-04-28 20:12 49.94843 12.26679 31761 ft 290 kts 250°
2026-04-28 20:12 49.94226 12.24804 32191 ft 288 kts 250°
2026-04-28 20:13 49.93003 12.21155 33020 ft 285 kts 250°
2026-04-28 20:13 49.92071 12.18434 33619 ft 284 kts 250°
2026-04-28 20:13 49.91148 12.15769 34112 ft 285 kts 250°
2026-04-28 20:13 49.90183 12.12987 34181 ft 299 kts 249°
2026-04-28 20:14 49.89192 12.10095 34182 ft 313 kts 249°
2026-04-28 20:14 49.88159 12.07042 34193 ft 325 kts 249°
2026-04-28 20:14 49.87459 12.04954 34189 ft 331 kts 249°
2026-04-28 20:15 49.85322 11.98553 34187 ft 339 kts 249°
2026-04-28 20:15 49.83148 11.92002 34188 ft 345 kts 249°
2026-04-28 20:16 49.80932 11.85311 34186 ft 350 kts 249°
2026-04-28 20:16 49.78719 11.78621 34184 ft 354 kts 249°
2026-04-28 20:17 49.76598 11.71694 34188 ft 356 kts 252°
2026-04-28 20:17 49.74604 11.64698 34188 ft 359 kts 252°
2026-04-28 20:18 49.72602 11.57610 34185 ft 361 kts 252°
2026-04-28 20:18 49.70596 11.50495 34188 ft 363 kts 252°
2026-04-28 20:19 49.68580 11.43354 34191 ft 364 kts 252°
2026-04-28 20:19 49.66485 11.36204 34193 ft 364 kts 251°
2026-04-28 20:20 49.64374 11.29104 34187 ft 365 kts 251°
2026-04-28 20:20 49.62260 11.22021 34184 ft 364 kts 251°
2026-04-28 20:21 49.60098 11.14969 34184 ft 365 kts 250°
2026-04-28 20:21 49.57817 11.07999 34179 ft 364 kts 249°
2026-04-28 20:22 49.55514 11.01068 34176 ft 362 kts 249°
2026-04-28 20:22 49.53212 10.94188 34178 ft 359 kts 249°
2026-04-28 20:23 49.50937 10.87398 34174 ft 358 kts 249°
2026-04-28 20:23 49.48660 10.80618 34173 ft 357 kts 249°
2026-04-28 20:24 49.46126 10.74030 34171 ft 361 kts 243°
2026-04-28 20:24 49.42836 10.68105 34178 ft 370 kts 232°
2026-04-28 20:25 49.39181 10.62611 34178 ft 365 kts 235°
2026-04-28 20:25 49.35746 10.56920 34183 ft 365 kts 235°
2026-04-28 20:26 49.32166 10.51392 34186 ft 366 kts 233°
2026-04-28 20:26 49.28563 10.45867 34182 ft 365 kts 233°
2026-04-28 20:27 49.24979 10.40393 34179 ft 365 kts 233°
2026-04-28 20:27 49.21404 10.34904 34173 ft 364 kts 234°
2026-04-28 20:28 49.17869 10.29381 34171 ft 365 kts 234°
2026-04-28 20:28 49.14327 10.23864 34160 ft 362 kts 236°
2026-04-28 20:29 49.11178 10.17935 34156 ft 360 kts 239°
2026-04-28 20:29 49.08021 10.11967 34153 ft 360 kts 239°
2026-04-28 20:30 49.04894 10.06045 34148 ft 360 kts 239°
2026-04-28 20:30 49.01751 10.00117 34143 ft 361 kts 239°
2026-04-28 20:31 48.98582 9.94143 34145 ft 361 kts 239°
2026-04-28 20:31 48.95417 9.88200 34143 ft 362 kts 239°
2026-04-28 20:32 48.92246 9.82256 34137 ft 362 kts 238°
2026-04-28 20:32 48.89063 9.76300 34136 ft 363 kts 238°
2026-04-28 20:33 48.85886 9.70373 34125 ft 363 kts 238°
2026-04-28 20:33 48.82696 9.64432 34119 ft 364 kts 238°
2026-04-28 20:34 48.79479 9.58457 34101 ft 365 kts 238°
2026-04-28 20:34 48.76284 9.52538 34097 ft 365 kts 238°
2026-04-28 20:35 48.73059 9.46573 34099 ft 365 kts 238°
2026-04-28 20:35 48.69845 9.40640 34091 ft 365 kts 238°
2026-04-28 20:36 48.66629 9.34716 34094 ft 365 kts 238°
2026-04-28 20:36 48.63417 9.28816 34092 ft 365 kts 237°
2026-04-28 20:37 48.60349 9.22713 34094 ft 362 kts 242°
2026-04-28 20:37 48.57420 9.16539 34094 ft 363 kts 241°
2026-04-28 20:38 48.54486 9.10314 34098 ft 362 kts 241°
2026-04-28 20:38 48.51577 9.04164 34091 ft 363 kts 241°
2026-04-28 20:39 48.48632 8.97955 34091 ft 363 kts 240°
2026-04-28 20:39 48.45697 8.91781 34091 ft 363 kts 240°
2026-04-28 20:40 48.42762 8.85619 34092 ft 363 kts 241°
2026-04-28 20:40 48.39830 8.79473 34089 ft 363 kts 240°
2026-04-28 20:41 48.36871 8.73290 33675 ft 362 kts 240°
2026-04-28 20:41 48.35423 8.70280 33209 ft 356 kts 240°
2026-04-28 20:41 48.33976 8.67264 32757 ft 351 kts 240°
2026-04-28 20:41 48.32549 8.64288 32310 ft 348 kts 240°
2026-04-28 20:42 48.31152 8.61383 31872 ft 345 kts 239°
2026-04-28 20:42 48.29748 8.58464 31429 ft 342 kts 239°
2026-04-28 20:42 48.28365 8.55597 31003 ft 341 kts 239°
2026-04-28 20:42 48.26972 8.52710 30579 ft 340 kts 239°
2026-04-28 20:43 48.25583 8.49830 30164 ft 339 kts 239°
2026-04-28 20:43 48.24213 8.47001 29686 ft 338 kts 239°
2026-04-28 20:43 48.22828 8.44136 29203 ft 338 kts 238°
2026-04-28 20:43 48.21449 8.41290 28736 ft 338 kts 238°
2026-04-28 20:44 48.20066 8.38439 28273 ft 338 kts 238°
2026-04-28 20:44 48.18630 8.35638 27813 ft 339 kts 233°
2026-04-28 20:44 48.16994 8.33121 27371 ft 342 kts 227°
2026-04-28 20:44 48.15132 8.30864 26928 ft 345 kts 221°
2026-04-28 20:45 48.13073 8.28924 26495 ft 349 kts 214°
2026-04-28 20:45 48.10946 8.27210 26072 ft 350 kts 213°
2026-04-28 20:45 48.08798 8.25459 25648 ft 350 kts 213°
2026-04-28 20:45 48.06680 8.23737 25239 ft 349 kts 213°
2026-04-28 20:46 48.04532 8.21998 24832 ft 349 kts 213°
2026-04-28 20:46 48.02391 8.20266 24449 ft 348 kts 212°
2026-04-28 20:46 48.00276 8.18549 24080 ft 348 kts 212°
2026-04-28 20:46 47.98155 8.16842 23711 ft 348 kts 212°
2026-04-28 20:47 47.96025 8.15118 23285 ft 348 kts 212°
2026-04-28 20:47 47.93889 8.13398 22851 ft 348 kts 212°
2026-04-28 20:47 47.91771 8.11688 22421 ft 348 kts 212°
2026-04-28 20:47 47.89636 8.09969 21996 ft 348 kts 212°
2026-04-28 20:48 47.87498 8.08251 21575 ft 348 kts 212°
2026-04-28 20:48 47.85380 8.06548 21165 ft 348 kts 211°
2026-04-28 20:48 47.83264 8.04849 20763 ft 348 kts 211°
2026-04-28 20:48 47.81121 8.03131 20362 ft 348 kts 211°
2026-04-28 20:49 47.79009 8.01436 19975 ft 348 kts 211°
2026-04-28 20:49 47.76864 7.99722 19581 ft 348 kts 211°
2026-04-28 20:49 47.74752 7.98027 19197 ft 347 kts 211°
2026-04-28 20:49 47.72615 7.96326 18815 ft 347 kts 210°
2026-04-28 20:50 47.70481 7.94617 18441 ft 347 kts 210°
2026-04-28 20:50 47.68370 7.92937 18057 ft 346 kts 210°
2026-04-28 20:50 47.66246 7.91241 17655 ft 345 kts 210°
2026-04-28 20:50 47.64154 7.89577 17264 ft 344 kts 210°
2026-04-28 20:51 47.62042 7.87896 16874 ft 342 kts 209°
2026-04-28 20:51 47.59940 7.86228 16487 ft 341 kts 209°
2026-04-28 20:51 47.57852 7.84568 16107 ft 340 kts 209°
2026-04-28 20:51 47.56471 7.83474 15857 ft 339 kts 209°
2026-04-28 20:52 47.53713 7.81287 15366 ft 337 kts 208°
2026-04-28 20:52 47.51642 7.79645 15000 ft 336 kts 208°
2026-04-28 20:52 47.49656 7.78077 14647 ft 336 kts 208°
2026-04-28 20:52 47.47587 7.76437 14291 ft 335 kts 208°
2026-04-28 20:53 47.43506 7.73215 13542 ft 333 kts 208°
2026-04-28 20:53 47.41455 7.71604 13144 ft 331 kts 207°
2026-04-28 20:53 47.39456 7.70023 12754 ft 320 kts 207°
2026-04-28 20:54 47.38163 7.69010 12508 ft 314 kts 207°
2026-04-28 20:54 47.36537 7.67729 12202 ft 307 kts 207°
2026-04-28 20:54 47.34662 7.66258 11841 ft 303 kts 207°
2026-04-28 20:54 47.32808 7.64804 11487 ft 300 kts 206°
2026-04-28 20:55 47.30832 7.63979 11118 ft 295 kts 181°
2026-04-28 20:55 47.28847 7.64382 10770 ft 290 kts 159°
2026-04-28 20:55 47.27068 7.65759 10423 ft 287 kts 150°
2026-04-28 20:55 47.25327 7.67185 10087 ft 285 kts 149°
2026-04-28 20:56 47.23615 7.68657 9727 ft 283 kts 149°
2026-04-28 20:56 47.21870 7.69935 9355 ft 283 kts 162°
2026-04-28 20:56 47.19904 7.70066 8979 ft 284 kts 186°
2026-04-28 20:56 47.18081 7.68997 8659 ft 283 kts 213°
2026-04-28 20:57 47.16741 7.66952 8342 ft 282 kts 237°
2026-04-28 20:57 47.15744 7.64469 8044 ft 279 kts 237°
2026-04-28 20:57 47.14766 7.62041 7746 ft 277 kts 239°
2026-04-28 20:57 47.13799 7.59597 7442 ft 276 kts 238°
2026-04-28 20:58 47.12830 7.57180 7173 ft 272 kts 239°
2026-04-28 20:58 47.12187 7.54623 6903 ft 270 kts 256°
2026-04-28 20:58 47.11787 7.51939 6607 ft 266 kts 256°
2026-04-28 20:58 47.11388 7.49303 6278 ft 261 kts 256°
2026-04-28 20:59 47.10979 7.46726 5942 ft 257 kts 256°
2026-04-28 20:59 47.10604 7.44361 5638 ft 255 kts 256°
2026-04-28 20:59 47.10227 7.42004 5340 ft 254 kts 256°
2026-04-28 20:59 47.09826 7.39474 5011 ft 252 kts 255°
2026-04-28 21:00 47.09334 7.37050 4680 ft 249 kts 241°
2026-04-28 21:00 47.08164 7.35249 4336 ft 244 kts 212°
2026-04-28 21:00 47.06683 7.34080 4141 ft 235 kts 200°
2026-04-28 21:00 47.05128 7.33851 4086 ft 221 kts 170°
2026-04-28 21:01 47.03747 7.34627 4067 ft 208 kts 143°
2026-04-28 21:01 47.02690 7.36004 4087 ft 200 kts 139°
2026-04-28 21:01 47.01615 7.37238 4084 ft 191 kts 140°
2026-04-28 21:01 47.00597 7.38463 4086 ft 187 kts 139°
2026-04-28 21:02 46.99601 7.39677 4083 ft 185 kts 139°
2026-04-28 21:02 46.98700 7.40779 4025 ft 145 kts 139°
2026-04-28 21:02 46.97993 7.41648 3793 ft 124 kts 137°
2026-04-28 21:02 46.97353 7.42434 3583 ft 119 kts 139°
2026-04-28 21:03 46.96731 7.43197 3383 ft 114 kts 140°
2026-04-28 21:03 46.96118 7.43947 3178 ft 114 kts 139°
2026-04-28 21:03 46.95510 7.44691 2971 ft 115 kts 138°
2026-04-28 21:03 46.94896 7.45449 2760 ft 116 kts 140°
2026-04-28 21:04 46.94282 7.46205 2543 ft 114 kts 139°
2026-04-28 21:04 46.93675 7.46943 2340 ft 114 kts 139°
2026-04-28 21:04 46.93068 7.47693 2119 ft 115 kts 137°
2026-04-28 21:04 46.92459 7.48452 1891 ft 115 kts 138°
2026-04-28 21:05 46.91841 7.49195 1703 ft 114 kts 138°
2026-04-28 21:05 46.91291 7.49863 1674 ft 85 kts 141°
2026-04-28 21:05 46.90944 7.50289 1680 ft 35 kts 140°
2026-04-28 21:05 46.90942 7.50409 1677 ft 12 kts 21°
2026-04-28 21:06 46.90962 7.50409 1677 ft 0 kts 334°
2026-04-28 21:07 46.90964 7.50406 1677 ft 4 kts 320°
2026-04-28 21:07 46.91026 7.50334 1679 ft 14 kts 330°
2026-04-28 21:07 46.91103 7.50245 1678 ft 15 kts 320°
2026-04-28 21:07 46.91182 7.50138 1684 ft 16 kts 320°
2026-04-28 21:08 46.91263 7.50043 1679 ft 15 kts 320°
2026-04-28 21:08 46.91327 7.49986 1682 ft 3 kts 32°
2026-04-28 21:08 46.91330 7.50020 1680 ft 0 kts 117°